SCP
0 0 0 0 0 0 0 0 0 0 1 0 0 0 0 0 0 0 0 0 0 0 0 0 0 0 0 0 0 0 0 0 0 0 0 0 0 0 0 0 0 0 0
0 0 0 0 0 0 0 0 0 1 0 0 0 0 0 0 0 0 0 0 0 0 0 0 0 0 0 0 0 0 0 0 0 0 0 0 0 0 0 0 0 0 0
0 0 0 0 0 0 0 0 0 0 0 0 0 0 0 0 0 0 0 0 0 0 0 0 0 0 0 0 0 0 0 0 0 0 0 0 0 0 0 0 0 0 0
-0 0 -0 0 0 0 0 -0 0 0 0 0 0 0 0 0 0 0 0 0 0 0 0 0 0 0 0 0 0 0 0 0 0 0 0 0 0 0 0 0 0 0 0
-0 0 0 0 0 -0 0 0 0 0 0 0 0 0 0 0 0 0 0 0 0 0 0 0 0 0 0 0 0 0 0 0 0 0 0 0 0 0 0 0 0 0 0
0 0 0 0 -0 0 0 0 0 0 0 0 0 0 0 0 0 0 0 0 0 0 0 0 0 0 0 0 0 0 0 0 0 0 0 0 0 0 0 0 0 0 0
0 0 0 0 0 0 0 0 0 0 0 0 0 0 0 0 0 0 0 0 0 0 0 0 0 0 0 0 0 0 0 0 0 0 0 0 0 0 0 0 0 0 0
0 0 0 0 0 0 0 0 0 0 0 0 0 0 0 0 0 0 0 0 0 0 0 0 0 0 0 0 0 0 0 0 0 0 0 0 0 0 0 0 0 0 0
0 0 0 0 0 0 0 0 0 0 0 0 0 0 0 0 0 0 0 0 0 0 0 0 0 0 0 0 0 0 0 0 0 0 0 0 0 0 0 0 0 0 0
-0 0 0 0 0 0 0 0 0 0 0 0 0 0 0 0 0 0 0 0 0 0 0 0 0 0 0 0 0 0 0 0 0 0 0 0 0 0 0 0 0 0 0
0 0 0 0 0 0 0 0 0 0 0 0 0 0 0 0 0 0 0 0 0 0 0 0 0 0 0 0 0 0 0 0 0 0 0 0 0 0 0 0 0 0 0
0 0 0 0 0 0 0 0 0 0 0 0 0 0 0 0 0 0 0 0 0 0 0 0 0 0 0 0 0 0 0 0 0 0 0 0 0 0 0 0 0 0 0
0 0 0 0 0 0 0 0 0 0 0 0 0 0 0 0 0 0 0 0 0 0 0 0 0 0 0 0 0 0 0 0 0 0 0 0 0 0 0 0 0 0 0
-0 -0 -0 -0 0 0 0 0 0 0 0 0 0 0 0 0 0 0 0 0 0 0 0 0 0 0 0 0 0 0 0 0 0 0 0 0 0 0 0 0 0 0 0
0 0 -0 0 0 0 0 0 0 0 0 0 0 0 0 0 0 0 0 0 0 0 0 0 0 0 0 0 0 0 0 0 0 0 0 0 0 0 0 0 0 0 0
-0 -0 0 0 0 0 0 -0 0 0 0 0 0 0 0 0 0 0 0 0 0 0 0 0 0 0 0 0 0 0 0 0 0 0 0 0 0 0 0 0 0 0 0
-0 -0 -0 -0 0 0 0 0 0 -0 -0 0 0 0 0 0 0 0 0 0 0 0 0 0 0 0 0 0 0 0 0 0 0 0 0 0 0 0 0 0 0 0 0
-0 0 0 0 0 0 0 0 0 0 0 0 0 0 0 0 0 0 0 0 0 0 0 0 0 0 0 0 0 0 0 0 0 0 0 0 0 0 0 0 0 0 0
-0 -0 -0 -0 -0 -0 0 0 0 0 -0 -0 0 0 0 0 0 0 0 0 0 0 0 0 0 0 0 0 0 0 0 0 0 0 0 0 0 0 0 0 0 0 0
-0 -0 -0 -0 -0 -0 0 0 0 0 0 0 0 0 0 0 0 0 0 0 0 0 0 0 0 0 0 0 0 0 0 0 0 0 0 0 0 0 0 0 0 0 0
0 0 -0 -0 -0 -0 -0 -0 0 0 0 0 0 0 0 0 0 0 0 0 0 0 0 0 0 0 0 0 0 0 0 0 0 0 0 0 0 0 0 0 0 0 0
0 0 0 0 0 0 0 0 0 0 0 0 0 0 0 0 0 0 0 0 0 0 0 0 0 0 0 0 0 0 0 0 0 0 0 0 0 0 0 0 0 0 0
0 0 0 0 0 0 0 0 0 0 0 0 0 0 0 0 0 0 0 0 0 0 0 0 0 0 0 0 0 0 0 0 0 0 0 0 0 0 0 0 0 0 0
0 0 0 0 0 0 0 0 0 0 0 0 0 0 0 0 0 0 0 0 0 0 0 0 0 0 0 0 0 0 0 0 0 0 0 0 0 0 0 0 0 0 0
0 0 0 0 0 0 0 0 0 0 0 0 0 0 0 0 0 0 0 0 0 0 0 0 0 0 0 0 0 0 0 0 0 0 0 0 0 0 0 0 0 0 0
0 0 0 0 0 0 0 0 0 0 0 0 0 0 0 0 0 0 0 0 0 0 0 0 0 0 0 0 0 0 0 0 0 0 0 0 0 0 0 0 0 0 0
Wind_Speed_500mb
68 74 76 79 84 74 84 91 97 87 87 85 101 105 100 96 90 87 84 93 98 91 89 87 100 106 90 80 81 74 69 74 72 80 82 74 71 77 68 65 61 56 52
59 66 75 78 87 83 78 93 108 90 81 91 128 101 102 94 95 91 89 96 103 97 93 92 103 102 101 70 59 62 54 40 42 59 70 73 67 82 69 63 60 57 53
43 54 70 81 87 97 85 101 92 86 75 109 95 97 99 99 94 89 89 92 98 89 85 99 106 111 104 83 74 75 53 38 28 33 63 63 61 72 71 64 58 55 52
19 34 61 72 86 91 89 101 104 81 81 79 101 93 92 87 84 79 66 56 59 55 42 84 98 119 112 104 84 65 53 53 50 32 26 52 64 72 69 64 63 60 57
28 10 38 63 75 86 87 103 94 76 81 94 86 73 70 76 86 72 55 51 55 58 58 53 63 107 117 117 107 85 66 56 58 59 50 46 53 63 67 65 62 56 57
49 48 37 44 59 73 92 80 67 86 96 77 83 74 75 67 51 56 60 54 45 44 44 41 44 69 98 113 111 105 88 67 66 61 58 48 61 57 60 63 66 64 58
78 70 60 75 88 83 55 77 88 85 85 86 79 68 73 70 64 58 56 52 56 50 51 53 48 53 64 67 92 96 91 97 81 71 72 75 65 62 62 65 63 60 56
85 89 93 102 96 79 81 84 77 83 82 86 85 74 64 66 61 56 55 50 42 45 48 52 52 58 63 66 65 77 89 90 91 89 78 71 59 57 54 54 53 55 50
110 111 103 99 102 99 96 86 90 90 88 81 70 61 58 46 42 49 47 42 36 29 34 39 42 45 51 55 52 54 49 65 77 81 76 75 69 64 53 49 52 53 52
101 90 94 95 87 89 79 88 91 89 78 79 73 62 52 49 35 32 32 36 41 36 26 15 31 35 39 51 58 56 65 65 57 49 58 64 67 69 59 50 47 53 55
87 84 86 91 88 86 81 74 69 67 67 69 65 58 52 49 40 31 29 25 25 27 29 33 33 29 34 35 43 54 59 59 60 61 60 59 59 63 63 61 59 54 54
76 73 79 79 82 77 77 72 67 59 57 57 50 44 35 29 27 29 26 25 24 23 24 21 22 23 34 37 36 41 47 50 50 55 57 58 56 52 49 48 48 50 51
65 67 69 74 76 75 75 70 68 61 58 54 50 46 38 31 24 18 16 15 15 17 19 20 16 16 17 20 25 31 35 38 41 46 44 44 45 40 39 39 39 39 39
62 66 65 67 71 71 71 69 65 59 53 50 46 43 39 33 26 21 19 14 11 13 12 13 14 14 13 14 18 22 24 28 32 35 40 41 39 38 37 36 37 38 35
53 54 58 60 60 62 64 62 59 56 49 46 44 38 34 30 28 22 17 17 15 14 10 7 13 17 19 21 23 22 23 26 27 31 34 36 38 38 38 38 37 38 38
49 52 52 51 50 51 50 49 49 48 45 43 40 35 31 26 20 15 13 14 14 12 9 5 7 12 17 23 26 27 28 28 29 29 31 34 36 39 42 42 40 40 38
46 45 44 43 42 41 39 37 35 33 32 33 32 31 30 25 20 16 13 10 9 9 11 8 3 4 12 19 23 27 29 31 30 32 34 37 38 41 47 49 49 44 39
36 35 35 35 35 33 30 28 26 25 25 25 24 25 24 24 23 21 17 10 7 5 6 6 5 2 4 9 16 21 24 26 29 29 30 31 34 40 48 52 51 47 43
28 28 27 27 25 23 21 19 18 17 16 15 14 14 15 16 16 16 15 12 10 6 4 1 1 1 3 6 10 14 19 24 29 30 31 33 35 40 49 54 52 46 41
23 22 22 20 19 17 14 12 11 9 7 6 5 5 6 6 6 9 11 10 9 6 4 6 5 6 7 8 11 15 19 23 26 29 31 34 37 43 50 52 49 47 42
21 21 22 22 21 20 18 15 12 9 7 4 2 1 1 2 3 3 5 5 4 3 6 9 9 7 9 12 14 16 21 23 25 28 31 34 39 45 46 46 47 47 41
20 20 20 20 20 19 17 15 13 11 9 7 5 5 6 7 8 8 8 7 5 4 5 11 12 12 11 14 17 19 22 26 29 30 32 35 39 42 45 47 47 45 44
21 22 22 20 19 19 18 17 17 15 14 13 12 11 10 10 12 14 14 13 11 10 9 9 12 14 13 12 16 23 26 29 31 32 34 37 40 44 47 50 52 50 49
24 24 23 23 22 21 20 19 18 18 17 17 17 17 17 16 16 16 18 18 17 14 14 14 17 19 20 20 21 23 29 31 31 31 32 37 42 46 49 53 52 53 50
26 27 27 27 27 26 25 24 22 21 19 19 19 19 20 21 21 21 21 21 20 18 15 13 13 16 20 21 22 22 27 33 34 35 36 40 44 49 53 52 54 50 45
30 31 32 32 31 30 30 29 28 26 25 23 22 21 22 22 23 23 24 26 24 24 18 14 12 12 16 18 19 19 21 31 36 38 40 41 49 53 54 54 49 46 40
Wind_Direction_500mb
269 260 250 243 227 230 228 227 228 227 219 219 215 210 212 212 206 210 217 217 211 209 208 210 206 193 188 179 178 185 212 222 229 230 221 212 215 215 211 214 217 215 217
268 254 244 238 230 218 225 225 221 215 216 206 208 214 206 206 208 208 212 212 205 204 207 204 200 189 181 182 187 203 195 196 214 208 205 205 211 209 209 214 214 215 218
276 253 241 234 227 216 216 221 220 206 210 204 214 220 205 200 208 207 208 208 208 209 214 206 197 184 185 185 183 180 185 184 181 210 188 193 193 198 203 211 214 217 220
300 247 238 228 218 216 221 213 200 202 205 201 207 200 198 199 202 202 195 194 204 202 202 217 204 196 192 194 193 192 199 210 215 217 226 214 196 195 200 207 210 217 221
30 110 207 213 213 211 203 188 189 201 213 199 201 177 152 163 173 160 165 175 187 189 193 203 217 216 203 204 208 209 210 207 206 206 213 208 208 201 201 204 211 218 220
50 77 115 157 167 179 182 174 188 201 172 168 169 159 163 170 181 175 164 163 164 177 179 196 212 219 218 215 210 216 219 217 215 214 222 218 223 214 213 213 215 213 215
59 75 86 119 125 120 136 156 167 163 160 163 160 161 163 174 168 185 174 157 161 169 179 185 193 190 205 216 220 223 225 230 236 229 228 226 226 225 220 217 220 224 228
50 62 73 94 106 113 116 124 133 139 140 142 156 167 173 177 182 183 174 158 175 185 193 196 203 206 203 208 220 220 225 229 227 229 235 231 225 238 234 232 230 223 222
50 57 68 78 92 102 104 106 103 113 117 126 128 129 138 144 157 169 175 170 185 192 199 212 211 216 213 213 209 211 209 218 223 228 227 227 222 225 228 226 220 217 219
50 56 67 72 81 87 90 90 96 101 103 107 106 111 109 118 129 141 148 158 158 168 174 191 226 206 209 207 204 215 204 200 202 211 220 225 225 221 223 222 223 223 222
51 55 62 71 72 76 80 83 87 92 94 94 96 96 95 97 105 117 118 131 141 160 175 189 200 214 204 204 209 211 214 212 204 206 209 212 214 215 216 217 216 218 228
52 56 61 66 73 78 79 78 77 77 77 82 86 90 95 101 108 109 109 120 130 138 144 156 172 190 205 215 215 212 212 219 218 215 211 210 211 212 211 214 218 223 227
54 59 61 65 72 76 79 79 78 81 83 84 89 93 91 91 93 99 131 138 140 139 141 146 155 161 169 189 196 209 220 220 211 209 212 215 214 212 218 220 220 226 230
48 53 57 60 65 68 74 79 81 81 82 85 90 88 86 86 88 85 95 111 143 167 169 175 188 192 189 182 194 208 215 214 213 211 210 211 211 210 213 219 222 220 217
46 52 55 56 59 66 68 68 72 75 75 77 75 74 74 73 69 76 84 88 86 93 110 169 205 209 208 210 211 207 205 210 214 209 211 212 210 212 213 214 214 214 212
42 44 47 53 57 58 62 65 67 70 70 74 75 75 75 75 71 71 77 80 84 87 97 125 178 197 206 212 220 218 217 218 216 217 218 217 216 215 213 208 208 207 204
39 41 43 46 49 55 57 58 65 64 67 73 75 75 75 74 73 72 71 76 83 95 90 85 91 182 210 208 212 215 219 222 222 222 221 218 216 214 209 203 199 198 194
38 43 43 42 40 41 46 52 52 49 53 58 57 58 61 63 64 68 74 82 80 85 91 71 73 99 217 206 210 213 216 215 216 215 214 213 211 208 201 198 196 194 193
31 33 34 37 40 44 45 45 42 42 44 43 47 50 52 51 52 53 55 72 80 90 131 151 21 247 214 217 207 204 210 213 211 209 208 207 205 203 200 198 197 195 193
13 17 19 22 27 35 41 46 55 63 67 68 56 38 49 62 60 53 57 67 80 90 159 214 252 261 244 214 206 199 199 204 208 209 207 204 202 201 201 198 196 191 188
352 355 357 359 2 5 7 12 14 17 20 23 18 333 194 196 159 132 100 88 96 120 180 200 207 228 244 238 224 216 211 207 205 204 201 199 199 198 200 196 190 190 194
330 333 336 338 338 339 340 339 337 332 327 317 301 279 242 222 207 199 195 193 188 183 190 206 215 225 232 231 228 221 218 214 210 207 205 203 200 196 193 190 188 188 185
308 310 312 313 315 315 315 315 313 310 304 297 287 276 265 244 227 216 211 211 213 219 221 220 216 218 225 231 229 226 219 219 214 212 208 203 196 191 189 188 185 181 176
294 295 296 296 295 296 296 297 296 294 290 285 279 272 266 261 251 235 223 216 215 218 226 234 235 234 236 241 235 227 223 217 214 210 203 198 191 188 184 180 177 173 172
285 285 284 284 282 280 278 277 277 279 281 280 275 267 259 251 248 246 238 228 220 216 220 229 237 236 233 230 225 224 218 212 206 203 198 193 188 182 178 176 171 172 171
280 278 277 275 273 270 267 266 265 264 265 267 267 266 262 256 246 239 235 229 224 217 214 217 225 234 223 218 214 209 206 201 194 194 192 191 184 178 173 170 171 171 170
Wind_Speed_850mb
68 74 76 79 84 74 84 91 97 87 87 85 101 105 100 96 90 87 84 93 98 91 89 87 100 106 90 80 81 74 69 74 72 80 82 74 71 77 68 65 61 56 52
59 66 75 78 87 83 78 93 108 90 81 91 128 101 102 94 95 91 89 96 103 97 93 92 103 102 101 70 59 62 54 40 42 59 70 73 67 82 69 63 60 57 53
43 54 70 81 87 97 85 101 92 86 75 109 95 97 99 99 94 89 89 92 98 89 85 99 106 111 104 83 74 75 53 38 28 33 63 63 61 72 71 64 58 55 52
19 34 61 72 86 91 89 101 104 81 81 79 101 93 92 87 84 79 66 56 59 55 42 84 98 119 112 104 84 65 53 53 50 32 26 52 64 72 69 64 63 60 57
28 10 38 63 75 86 87 103 94 76 81 94 86 73 70 76 86 72 55 51 55 58 58 53 63 107 117 117 107 85 66 56 58 59 50 46 53 63 67 65 62 56 57
49 48 37 44 59 73 92 80 67 86 96 77 83 74 75 67 51 56 60 54 45 44 44 41 44 69 98 113 111 105 88 67 66 61 58 48 61 57 60 63 66 64 58
78 70 60 75 88 83 55 77 88 85 85 86 79 68 73 70 64 58 56 52 56 50 51 53 48 53 64 67 92 96 91 97 81 71 72 75 65 62 62 65 63 60 56
85 89 93 102 96 79 81 84 77 83 82 86 85 74 64 66 61 56 55 50 42 45 48 52 52 58 63 66 65 77 89 90 91 89 78 71 59 57 54 54 53 55 50
110 111 103 99 102 99 96 86 90 90 88 81 70 61 58 46 42 49 47 42 36 29 34 39 42 45 51 55 52 54 49 65 77 81 76 75 69 64 53 49 52 53 52
101 90 94 95 87 89 79 88 91 89 78 79 73 62 52 49 35 32 32 36 41 36 26 15 31 35 39 51 58 56 65 65 57 49 58 64 67 69 59 50 47 53 55
87 84 86 91 88 86 81 74 69 67 67 69 65 58 52 49 40 31 29 25 25 27 29 33 33 29 34 35 43 54 59 59 60 61 60 59 59 63 63 61 59 54 54
76 73 79 79 82 77 77 72 67 59 57 57 50 44 35 29 27 29 26 25 24 23 24 21 22 23 34 37 36 41 47 50 50 55 57 58 56 52 49 48 48 50 51
65 67 69 74 76 75 75 70 68 61 58 54 50 46 38 31 24 18 16 15 15 17 19 20 16 16 17 20 25 31 35 38 41 46 44 44 45 40 39 39 39 39 39
62 66 65 67 71 71 71 69 65 59 53 50 46 43 39 33 26 21 19 14 11 13 12 13 14 14 13 14 18 22 24 28 32 35 40 41 39 38 37 36 37 38 35
53 54 58 60 60 62 64 62 59 56 49 46 44 38 34 30 28 22 17 17 15 14 10 7 13 17 19 21 23 22 23 26 27 31 34 36 38 38 38 38 37 38 38
49 52 52 51 50 51 50 49 49 48 45 43 40 35 31 26 20 15 13 14 14 12 9 5 7 12 17 23 26 27 28 28 29 29 31 34 36 39 42 42 40 40 38
46 45 44 43 42 41 39 37 35 33 32 33 32 31 30 25 20 16 13 10 9 9 11 8 3 4 12 19 23 27 29 31 30 32 34 37 38 41 47 49 49 44 39
36 35 35 35 35 33 30 28 26 25 25 25 24 25 24 24 23 21 17 10 7 5 6 6 5 2 4 9 16 21 24 26 29 29 30 31 34 40 48 52 51 47 43
28 28 27 27 25 23 21 19 18 17 16 15 14 14 15 16 16 16 15 12 10 6 4 1 1 1 3 6 10 14 19 24 29 30 31 33 35 40 49 54 52 46 41
23 22 22 20 19 17 14 12 11 9 7 6 5 5 6 6 6 9 11 10 9 6 4 6 5 6 7 8 11 15 19 23 26 29 31 34 37 43 50 52 49 47 42
21 21 22 22 21 20 18 15 12 9 7 4 2 1 1 2 3 3 5 5 4 3 6 9 9 7 9 12 14 16 21 23 25 28 31 34 39 45 46 46 47 47 41
20 20 20 20 20 19 17 15 13 11 9 7 5 5 6 7 8 8 8 7 5 4 5 11 12 12 11 14 17 19 22 26 29 30 32 35 39 42 45 47 47 45 44
21 22 22 20 19 19 18 17 17 15 14 13 12 11 10 10 12 14 14 13 11 10 9 9 12 14 13 12 16 23 26 29 31 32 34 37 40 44 47 50 52 50 49
24 24 23 23 22 21 20 19 18 18 17 17 17 17 17 16 16 16 18 18 17 14 14 14 17 19 20 20 21 23 29 31 31 31 32 37 42 46 49 53 52 53 50
26 27 27 27 27 26 25 24 22 21 19 19 19 19 20 21 21 21 21 21 20 18 15 13 13 16 20 21 22 22 27 33 34 35 36 40 44 49 53 52 54 50 45
30 31 32 32 31 30 30 29 28 26 25 23 22 21 22 22 23 23 24 26 24 24 18 14 12 12 16 18 19 19 21 31 36 38 40 41 49 53 54 54 49 46 40
Wind_Direction_850mb
269 260 250 243 227 230 228 227 228 227 219 219 215 210 212 212 206 210 217 217 211 209 208 210 206 193 188 179 178 185 212 222 229 230 221 212 215 215 211 214 217 215 217
268 254 244 238 230 218 225 225 221 215 216 206 208 214 206 206 208 208 212 212 205 204 207 204 200 189 181 182 187 203 195 196 214 208 205 205 211 209 209 214 214 215 218
276 253 241 234 227 216 216 221 220 206 210 204 214 220 205 200 208 207 208 208 208 209 214 206 197 184 185 185 183 180 185 184 181 210 188 193 193 198 203 211 214 217 220
300 247 238 228 218 216 221 213 200 202 205 201 207 200 198 199 202 202 195 194 204 202 202 217 204 196 192 194 193 192 199 210 215 217 226 214 196 195 200 207 210 217 221
30 110 207 213 213 211 203 188 189 201 213 199 201 177 152 163 173 160 165 175 187 189 193 203 217 216 203 204 208 209 210 207 206 206 213 208 208 201 201 204 211 218 220
50 77 115 157 167 179 182 174 188 201 172 168 169 159 163 170 181 175 164 163 164 177 179 196 212 219 218 215 210 216 219 217 215 214 222 218 223 214 213 213 215 213 215
59 75 86 119 125 120 136 156 167 163 160 163 160 161 163 174 168 185 174 157 161 169 179 185 193 190 205 216 220 223 225 230 236 229 228 226 226 225 220 217 220 224 228
50 62 73 94 106 113 116 124 133 139 140 142 156 167 173 177 182 183 174 158 175 185 193 196 203 206 203 208 220 220 225 229 227 229 235 231 225 238 234 232 230 223 222
50 57 68 78 92 102 104 106 103 113 117 126 128 129 138 144 157 169 175 170 185 192 199 212 211 216 213 213 209 211 209 218 223 228 227 227 222 225 228 226 220 217 219
50 56 67 72 81 87 90 90 96 101 103 107 106 111 109 118 129 141 148 158 158 168 174 191 226 206 209 207 204 215 204 200 202 211 220 225 225 221 223 222 223 223 222
51 55 62 71 72 76 80 83 87 92 94 94 96 96 95 97 105 117 118 131 141 160 175 189 200 214 204 204 209 211 214 212 204 206 209 212 214 215 216 217 216 218 228
52 56 61 66 73 78 79 78 77 77 77 82 86 90 95 101 108 109 109 120 130 138 144 156 172 190 205 215 215 212 212 219 218 215 211 210 211 212 211 214 218 223 227
54 59 61 65 72 76 79 79 78 81 83 84 89 93 91 91 93 99 131 138 140 139 141 146 155 161 169 189 196 209 220 220 211 209 212 215 214 212 218 220 220 226 230
48 53 57 60 65 68 74 79 81 81 82 85 90 88 86 86 88 85 95 111 143 167 169 175 188 192 189 182 194 208 215 214 213 211 210 211 211 210 213 219 222 220 217
46 52 55 56 59 66 68 68 72 75 75 77 75 74 74 73 69 76 84 88 86 93 110 169 205 209 208 210 211 207 205 210 214 209 211 212 210 212 213 214 214 214 212
42 44 47 53 57 58 62 65 67 70 70 74 75 75 75 75 71 71 77 80 84 87 97 125 178 197 206 212 220 218 217 218 216 217 218 217 216 215 213 208 208 207 204
39 41 43 46 49 55 57 58 65 64 67 73 75 75 75 74 73 72 71 76 83 95 90 85 91 182 210 208 212 215 219 222 222 222 221 218 216 214 209 203 199 198 194
38 43 43 42 40 41 46 52 52 49 53 58 57 58 61 63 64 68 74 82 80 85 91 71 73 99 217 206 210 213 216 215 216 215 214 213 211 208 201 198 196 194 193
31 33 34 37 40 44 45 45 42 42 44 43 47 50 52 51 52 53 55 72 80 90 131 151 21 247 214 217 207 204 210 213 211 209 208 207 205 203 200 198 197 195 193
13 17 19 22 27 35 41 46 55 63 67 68 56 38 49 62 60 53 57 67 80 90 159 214 252 261 244 214 206 199 199 204 208 209 207 204 202 201 201 198 196 191 188
352 355 357 359 2 5 7 12 14 17 20 23 18 333 194 196 159 132 100 88 96 120 180 200 207 228 244 238 224 216 211 207 205 204 201 199 199 198 200 196 190 190 194
330 333 336 338 338 339 340 339 337 332 327 317 301 279 242 222 207 199 195 193 188 183 190 206 215 225 232 231 228 221 218 214 210 207 205 203 200 196 193 190 188 188 185
308 310 312 313 315 315 315 315 313 310 304 297 287 276 265 244 227 216 211 211 213 219 221 220 216 218 225 231 229 226 219 219 214 212 208 203 196 191 189 188 185 181 176
294 295 296 296 295 296 296 297 296 294 290 285 279 272 266 261 251 235 223 216 215 218 226 234 235 234 236 241 235 227 223 217 214 210 203 198 191 188 184 180 177 173 172
285 285 284 284 282 280 278 277 277 279 281 280 275 267 259 251 248 246 238 228 220 216 220 229 237 236 233 230 225 224 218 212 206 203 198 193 188 182 178 176 171 172 171
280 278 277 275 273 270 267 266 265 264 265 267 267 266 262 256 246 239 235 229 224 217 214 217 225 234 223 218 214 209 206 201 194 194 192 191 184 178 173 170 171 171 170